SEASAT 1 
1 10967U 78064A   03040.94449279  .00000398  00000-0  16440-3 0  1960
2 10967 108.0072 172.9630 0002202 229.0895 131.0054 14.41439181290878
LANDSAT 4 
1 13367U 82072A   03041.28068787  .00002712  00000-0  23238-3 0  4429
2 13367  98.2137 142.5267 0010019 134.6392 225.5686 14.98434771 96612
LANDSAT 5 
1 14780U 84021A   03042.17389660  .00000180  00000-0  50108-4 0  6527
2 14780  98.2657 107.1346 0003651  83.5374 276.6262 14.57088920  7828
COSMOS 1602 
1 15331U 84105A   03040.93236639  .00003294  00000-0  27874-3 0  2700
2 15331  82.5286 343.3417 0015965 143.1269 217.1056 14.97642137994292
SPOT 1 
1 16613U 86019A   03040.73380699  .00000211  00000-0  11945-3 0    92
2 16613  98.6952 117.6650 0001469  87.0555 273.0783 14.20041558564975
COSMOS 1766 
1 16881U 86055A   03041.07615010  .00003216  00000-0  28343-3 0  3300
2 16881  82.5103  40.4201 0014628 189.5464 170.5582 14.96082404894900
MOS 1A MOMO 
1 17527U 87018A   03040.96849124 -.00000026  00000-0  10000-4 0  5446
2 17527  98.7000  49.6785 0017849  55.9726 304.3132 14.01605557815037
IRS-1A 
1 18960U 88021A   03040.90956588 -.00000188  00000-0 -10498-3 0  7565
2 18960  98.9858 349.7281 0015047 102.8777 257.4064 13.96233439663013
OKEAN 1 
1 19274U 88056A   03040.79352197  .00002564  00000-0  23930-3 0  9526
2 19274  82.5110 145.8389 0016689  14.7348 345.4364 14.93735082790015
SPOT 2 
1 20436U 90005A   03041.85878285  .00000161  00000-0  95892-4 0  2974
2 20436  98.7002 117.9554 0000910 110.4180   0.0269 14.20036173676665
MOS 1B MOMO 
1 20478U 90013A   03040.66152389 -.00000042  00000-0  00000-0 0  8111
2 20478  98.8127  78.7846 0006235  77.1875 282.9984 13.94689971582946
OKEAN 2 
1 20510U 90018A   03041.21412483  .00002186  00000-0  22904-3 0  2955
2 20510  82.5202 117.4157 0013344 247.4294 112.5516 14.89094527699376
OKEAN 3 
1 21397U 91039A   03041.50233235  .00001595  00000-0  18439-3 0  9061
2 21397  82.5185  41.2933 0019905   7.2362 352.9144 14.84840309630456
ERS-1 
1 21574U 91050A   03040.92502533  .00000229  00000-0  94272-4 0  7371
2 21574  98.4430 114.9429 0034608 163.4077 196.8249 14.35266049605345
IRS-1B 
1 21688U 91061A   03040.74237177  .00000406  00000-0  32289-3 0   669
2 21688  98.9762 112.1826 0019863  57.8323  88.1802 13.96791210477806
TOPEX 
1 22076U 92052A   03040.46361818 -.00000038  00000-0  10000-3 0  5676
2 22076  66.0409 208.9420 0007604 269.4368  90.5848 12.80931929491130
SPOT 3 
1 22823U 93061A   03040.66872540  .00000144  00000-0  90062-4 0  2219
2 22823  98.4424  75.4127 0016073 246.8036 113.1447 14.18299967485309
OKEAN 1-7 
1 23317U 94066A   03040.93272630  .00001546  00000-0  19618-3 0  1985
2 23317  82.5424 336.9542 0024803  79.2690 281.1314 14.80884906448829
IRS-P2 
1 23323U 94068A   03040.64821334  .00000102  00000-0  64152-4 0  4808
2 23323  98.4648  95.1682 0001022  96.0031 264.1262 14.22765127431939
RESURS O1-3 
1 23342U 94074A   03040.96367256  .00001698  00000-0  25766-3 0  9385
2 23342  97.7515  40.7171 0001938  89.1770 270.9733 14.75323532443987
ERS-2 
1 23560U 95021A   03042.15965397  .00000309  00000-0  13092-3 0  1203
2 23560  98.5459 117.9295 0000750  82.5153 277.6108 14.32253419408409
SICH-1 
1 23657U 95046A   03042.21590596  .00001486  00000-0  19264-3 0  9841
2 23657  82.5304 116.5408 0026270  58.2170 302.1596 14.79942417401146
RADARSAT 
1 23710U 95059A   03040.95679231  .00000237  00000-0  10862-3 0  1422
2 23710  98.5749  49.5026 0000956  72.0345 288.0946 14.29984851379359
IRS-1C 
1 23751U 95072A   03040.75112854  .00000090  00000-0  60716-4 0  1581
2 23751  98.5993 111.4276 0000678  57.1180 303.0063 14.21686787369494
IRS-P3 
1 23827U 96017A   03040.69791502  .00000196  00000-0  10845-3 0  1800
2 23827  98.4964 101.7236 0001917  25.3416 334.7852 14.21736227357544
TOMS-EP 
1 23940U 96037A   03040.94643751  .00001141  00000-0  29978-3 0  2199
2 23940  98.2727 305.6043 0029234 301.8866  57.9485 14.50759336352919
ADEOS 
1 24277U 96046A   03040.72371080  .00000144  00000-0  74367-4 0  4212
2 24277  98.3483  88.7622 0000606 337.4111  22.7044 14.28378908337770
ORBVIEW 2 SE
1 24883U 97037A   03041.85380317  .00000590  00000-0  13494-3 0   353
2 24883  98.2184 142.8736 0001060 186.1388 173.9799 14.59180224294222
IRS-1D 
1 24971U 97057A   03040.84050138  .00000155  00000-0  71473-4 0  1301
2 24971  98.5325 116.1749 0056650 341.4510  18.4607 14.32838979280680
TRMM 
1 25063U 97074A   03041.84882722  .00039418  00000-0  55092-3 0  9755
2 25063  34.9724 192.5193 0001611 246.1588 113.8971 15.55777029298759
SPOT 4 
1 25260U 98017A   03040.90145732  .00000168  00000-0  99525-4 0   639
2 25260  98.7504 116.7392 0000912 117.7810 242.3458 14.20023467253171
RESURS O1-N4
1 25394U 98043A   03041.20344114  .00000158  00000-0  88049-4 0  4446
2 25394  98.6344 119.2873 0002105 116.2322 243.9073 14.23874550238342
FASAT-B 
1 25395U 98043B   03040.95404519 -.00000043  00000-0  00000-0 0  9136
2 25395  98.6274 118.8527 0003741 128.3677 231.7839 14.23890365238347
TMSAT 
1 25396U 98043C   03040.96061220 -.00000043  00000-0  00000-0 0  8764
2 25396  98.6277 118.2331 0003351 144.8058 215.3344 14.23508427238301
TECHSAT 1B 
1 25397U 98043D   03040.97908427  .00000068  00000-0  49365-4 0  1293
2 25397  98.6226 117.1461 0001729 142.2485 217.8816 14.22957675238270
ROCSAT-1 
1 25616U 99002A   03040.91874996  .00003734  00000-0  35009-3 0   594
2 25616  34.9828 180.5903 0024155  91.5055 268.8423 14.93325801219409
SUNSAT 
1 25636U 99008C   03040.97994738  .00000525  00000-0  14526-3 0  7835
2 25636  96.4521  27.9424 0149718   3.2767 356.9372 14.42944113208574
LANDSAT 7 
1 25682U 99020A   03042.15047005  .00000399  00000-0  98586-4 0  8219
2 25682  98.2175 111.0206 0001072  33.3532 326.7726 14.57105194203518
UOSAT-12 
1 25693U 99021A   03042.16685438  .00000473  00000-0  87488-4 0  6941
2 25693  64.5599  33.4409 0019513 315.6515  44.3025 14.76378634205164
KITSAT-3 
1 25756U 99029A   03040.69077956  .00000444  00000-0  12135-3 0   842
2 25756  98.4274 155.3934 0014995  49.7725 310.4790 14.51885789196481
TUBSAT 
1 25757U 99029B   03041.78132599  .00000051  00000-0  24627-4 0  6412
2 25757  98.4204 154.7736 0015169  55.2160 305.0456 14.50543444196563
OCEANSAT 
1 25758U 99029C   03041.24251649 -.00001415  00000-0 -34796-3 0  1174
2 25758  98.2895 139.5299 0001743 103.4948 256.6438 14.50846237196619
QUIKSCAT 
1 25789U 99034A   03040.93958666  .00000088  00000-0  54707-4 0  7389
2 25789  98.6331 228.1215 0000774 130.7619 229.3633 14.26579222189757
OKEAN-O 
1 25860U 99039A   03040.93806746  .00000691  00000-0  11617-3 0   166
2 25860  97.8645  88.7518 0002128  94.1632 265.9819 14.72593514191661
IKONOS-2 
1 25919U 99051A   03040.81461113 -.00000255  00000-0 -39287-4 0  8279
2 25919  98.1241 119.1207 0000831  50.5535 309.5519 14.64439272180608
CBERS-1 
1 25940U 99057A   03040.82912514  .00000165  00000-0  72231-4 0  7651
2 25940  98.4241 113.2831 0001120  90.0089 270.1225 14.35485141174297
TERRA 
1 25994U 99068A   03041.82785857  .00000558  00000-0  13383-3 0  6849
2 25994  98.2007 118.1680 0000879  81.3763 278.7535 14.57122290167547
KOMPSAT 
1 26032U 99070A   03040.78130912  .00001773  00000-0  32781-3 0  8177
2 26032  98.0925 302.6278 0004150 337.7224  22.3804 14.66605764167664
TIUNGSAT 1 
1 26548U 00057D   03040.52149507  .00001782  00000-0  24265-3 0  4161
2 26548  64.5576  52.7188 0046027 239.3056 120.3539 14.81237384128036
EO-1 
1 26619U 00075A   03040.77779879  .00000927  00000-0  21574-3 0  5709
2 26619  98.2171 109.9162 0001118  33.1959 326.9310 14.57103937117950
SAC C 
1 26620U 00075B   03040.93409057  .00000657  00000-0  15589-3 0  7999
2 26620  98.2002 116.8526 0000858 285.3339  74.7764 14.57081109118014
EROS-A1 
1 26631U 00079A   03040.79367073  .00030688  00000-0  90537-3 0  5351
2 26631  97.3421 106.8740 0021822 359.6743 109.5656 15.34701156121700
QUICKBIRD 2 
1 26953U 01047A   03040.83065068  .00020079  00000-0  50662-3 0  5873
2 26953  97.1568 115.2536 0001605   1.6984 109.0461 15.39877925 73698
TES 
1 26957U 01049A   03040.79328698  .00002369  00000-0  18864-3 0  8227
2 26957  97.7148 120.7672 0027772  87.6374 272.8029 15.01056241 71319
JASON 
1 26997U 01055A   03040.92733503 -.00000061  00000-0  00000-0 0  1511
2 26997  66.0396 207.6886 0007081 270.4460  89.5744 12.80931677 54988
BADR B 
1 27003U 01056C   03040.90358676  .00000144  00000-0  21472-3 0  2356
2 27003  99.5875 280.2994 0019391 292.7115  67.1981 13.70034063 58362
MAROC-TUBSAT
1 27004U 01056D   03040.91919743  .00000144  00000-0  21472-3 0  1861
2 27004  99.5889 280.2618 0019567 295.2954  64.6165 13.69978896 58359
ENVISAT 
1 27386U 02009A   03040.95224427  .00000215  00000-0  95972-4 0  9252
2 27386  98.5461 109.6253 0000971 100.1489 259.9802 14.32255425 49514
SPOT 5 
1 27421U 02021A   03040.74384100  .00000158  00000-0  94784-4 0  9681
2 27421  98.7243 117.3860 0000558  56.3952 303.7277 14.20029660 39983
AQUA 
1 27424U 02022A   03040.95177724  .00001120  00000-0  25878-3 0  3096
2 27424  98.2004 342.6569 0001876  86.1678 273.9734 14.57092674 41024
ALSAT 1 
1 27559U 02054A   03040.90928634  .00000387  00000-0  10286-3 0  2550
2 27559  98.2363 289.4021 0042237 209.1429 150.7410 14.53458624 10698
ADEOS II 
1 27597U 02056A   03040.72370193  .00000343  00000-0  16300-3 0   738
2 27597  98.7235 114.7656 0000570 139.1076 221.0143 14.25770112  8220
ICESAT 
1 27642U 03002A   03039.90037765  .00000123  00000-0  13952-4 0   304
2 27642  93.9999 194.7098 0007286  97.3077 262.8980 14.90486789  4000
